| time (UTC) | temp F | wind direction | speed MPH | gust MPH | rain 1hr in | rain 24hr in | rain mn in | humidity % | barometer mb |
| 20260904225604 | 76 | 239 | 0.0 | 0.0 | 0.01 | 0.35 | 0.20 | 91 | 1012.7 |
| 20260904225104 | 76 | 239 | 0.0 | 0.0 | 0.01 | 0.36 | 0.20 | 90 | 1012.7 |
| 20260904224604 | 76 | 239 | 0.0 | 0.0 | 0.01 | 0.36 | 0.20 | 91 | 1012.6 |
| 20260904224104 | 76 | 239 | 0.0 | 0.0 | 0.01 | 0.37 | 0.20 | 91 | 1012.4 |
| 20260904223604 | 76 | 239 | 0.0 | 0.0 | 0.01 | 0.37 | 0.20 | 91 | 1012.2 |
| 20260904221605 | 76 | 239 | 0.0 | 0.0 | 0.01 | 0.40 | 0.20 | 92 | 1012.4 |
| 20260904221105 | 76 | 239 | 0.0 | 0.0 | 0.01 | 0.40 | 0.20 | 92 | 1012.3 |
| 20260904220604 | 76 | 239 | 0.0 | 0.0 | 0.02 | 0.41 | 0.20 | 92 | 1012.3 |
| 20260904220104 | 76 | 240 | 0.0 | 0.0 | 0.02 | 0.42 | 0.20 | 92 | 1012.3 |
| 20260904215604 | 76 | 265 | 0.0 | 0.0 | 0.01 | 0.41 | 0.19 | 92 | 1012.2 |
| 20260904215104 | 76 | 308 | 0.0 | 0.0 | 0.01 | 0.42 | 0.19 | 93 | 1012.3 |
| 20260904214604 | 75 | 308 | 0.0 | 0.0 | 0.01 | 0.43 | 0.19 | 93 | 1012.3 |
| 20260904214104 | 75 | 313 | 0.0 | 0.0 | 0.01 | 0.44 | 0.19 | 93 | 1012.3 |
| 20260904213104 | 75 | 250 | 0.0 | 0.0 | 0.01 | 0.47 | 0.19 | 93 | 1012.1 |
| 20260904212605 | 75 | 250 | 0.0 | 0.0 | 0.01 | 0.48 | 0.19 | 94 | 1012.0 |
| 20260904212104 | 75 | 250 | 0.0 | 0.0 | 0.01 | 0.50 | 0.19 | 93 | 1012.1 |
| 20260904211605 | 75 | 248 | 0.0 | 0.0 | 0.01 | 0.52 | 0.19 | 94 | 1012.2 |
| 20260904211104 | 75 | 260 | 0.0 | 0.0 | 0.01 | 0.54 | 0.19 | 94 | 1012.2 |
| 20260904210604 | 75 | 234 | 0.0 | 0.0 | 0.00 | 0.55 | 0.18 | 94 | 1012.1 |
| 20260904210104 | 75 | 240 | 0.0 | 0.0 | 0.01 | 0.57 | 0.18 | 94 | 1012.2 |
| 20260904205104 | 75 | 258 | 0.0 | 0.0 | 0.01 | 0.62 | 0.18 | 95 | 1012.0 |
| 20260904204604 | 75 | 272 | 0.0 | 0.0 | 0.01 | 0.65 | 0.18 | 95 | 1011.9 |
| 20260904204104 | 74 | 252 | 0.0 | 0.0 | 0.01 | 0.68 | 0.18 | 95 | 1011.7 |
| 20260904203604 | 74 | 249 | 0.0 | 0.0 | 0.01 | 0.71 | 0.18 | 95 | 1011.7 |
| 20260904203104 | 74 | 254 | 0.0 | 0.0 | 0.01 | 0.74 | 0.18 | 95 | 1011.7 |
| 20260904202605 | 74 | 254 | 0.0 | 0.0 | 0.01 | 0.77 | 0.18 | 95 | 1011.5 |
| 20260904202104 | 74 | 251 | 0.0 | 0.0 | 0.02 | 0.80 | 0.18 | 95 | 1011.6 |
| 20260904201604 | 74 | 248 | 0.0 | 0.0 | 0.02 | 0.82 | 0.18 | 95 | 1011.6 |
| 20260904201104 | 74 | 242 | 0.0 | 0.0 | 0.02 | 0.84 | 0.18 | 95 | 1011.7 |
| 20260904200604 | 74 | 242 | 0.0 | 0.0 | 0.02 | 0.84 | 0.18 | 95 | 1011.7 |
| 20260904200104 | 74 | 242 | 0.0 | 0.0 | 0.01 | 0.83 | 0.17 | 95 | 1011.7 |
| 20260904195604 | 74 | 242 | 0.0 | 0.0 | 0.01 | 0.83 | 0.17 | 96 | 1011.8 |
| 20260904195104 | 74 | 242 | 0.0 | 0.0 | 0.01 | 0.83 | 0.17 | 95 | 1012.1 |
| 20260904194604 | 73 | 252 | 0.0 | 0.0 | 0.01 | 0.83 | 0.17 | 95 | 1012.1 |
| 20260904194104 | 74 | 242 | 0.0 | 0.0 | 0.01 | 0.83 | 0.17 | 95 | 1012.2 |
| 20260904193604 | 74 | 226 | 0.0 | 0.0 | 0.01 | 0.83 | 0.17 | 96 | 1012.2 |
| 20260904193104 | 73 | 226 | 0.0 | 0.0 | 0.02 | 0.83 | 0.17 | 96 | 1012.3 |
| 20260904192604 | 73 | 226 | 0.0 | 0.0 | 0.02 | 0.83 | 0.17 | 96 | 1012.4 |
| 20260904192104 | 73 | 226 | 0.0 | 0.0 | 0.01 | 0.82 | 0.16 | 96 | 1012.5 |
| 20260904191604 | 73 | 236 | 0.0 | 0.0 | 0.01 | 0.82 | 0.16 | 96 | 1012.6 |
| 20260904190604 | 73 | 208 | 0.0 | 0.0 | 0.01 | 0.82 | 0.16 | 96 | 1012.8 |
| 20260904185604 | 73 | 184 | 0.0 | 0.0 | 0.02 | 0.82 | 0.16 | 96 | 1012.7 |
| 20260904185104 | 73 | 250 | 0.0 | 0.0 | 0.02 | 0.82 | 0.16 | 96 | 1012.8 |
| 20260904184604 | 73 | 217 | 0.0 | 0.0 | 0.02 | 0.82 | 0.16 | 96 | 1012.8 |
| 20260904184104 | 72 | 192 | 0.0 | 0.0 | 0.02 | 0.82 | 0.16 | 96 | 1013.0 |
| 20260904183604 | 72 | 250 | 0.0 | 0.0 | 0.02 | 0.82 | 0.16 | 96 | 1013.3 |
| 20260904183104 | 72 | 245 | 0.0 | 0.0 | 0.01 | 0.81 | 0.15 | 96 | 1013.4 |
| 20260904181604 | 73 | 243 | 0.0 | 0.0 | 0.02 | 0.81 | 0.15 | 96 | 1013.7 |
| 20260904181104 | 73 | 230 | 0.0 | 0.0 | 0.02 | 0.81 | 0.15 | 96 | 1013.4 |
| 20260904180604 | 73 | 218 | 0.0 | 0.0 | 0.02 | 0.81 | 0.15 | 96 | 1013.4 |
| 20260904175604 | 73 | 226 | 0.0 | 0.0 | 0.01 | 0.80 | 0.14 | 96 | 1013.8 |
| 20260904174604 | 72 | 244 | 0.0 | 0.0 | 0.01 | 0.80 | 0.14 | 96 | 1013.4 |
| 20260904174104 | 72 | 196 | 0.0 | 0.0 | 0.02 | 0.80 | 0.14 | 96 | 1013.6 |
| 20260904173604 | 72 | 196 | 0.0 | 0.0 | 0.02 | 0.80 | 0.14 | 96 | 1013.5 |
| 20260904173104 | 72 | 147 | 0.0 | 0.0 | 0.02 | 0.80 | 0.14 | 96 | 1013.3 |
| 20260904172604 | 72 | 188 | 0.0 | 5.0 | 0.02 | 0.80 | 0.14 | 96 | 1013.8 |
| 20260904172104 | 72 | 205 | 1.0 | 3.0 | 0.02 | 0.80 | 0.14 | 96 | 1014.1 |
| 20260904171604 | 71 | 207 | 1.0 | 2.0 | 0.01 | 0.79 | 0.13 | 96 | 1014.2 |
| 20260904170604 | 71 | 207 | 0.0 | 1.0 | 0.01 | 0.79 | 0.13 | 96 | 1013.8 |
| 20260904170104 | 71 | 207 | 1.0 | 2.0 | 0.01 | 0.79 | 0.13 | 96 | 1014.3 |
| 20260904165604 | 71 | 197 | 0.0 | 1.0 | 0.02 | 0.79 | 0.13 | 96 | 1013.8 |
| 20260904165104 | 71 | 197 | 1.0 | 2.0 | 0.02 | 0.79 | 0.13 | 96 | 1013.8 |
| 20260904164604 | 71 | 197 | 1.0 | 2.0 | 0.02 | 0.79 | 0.13 | 96 | 1013.8 |
| 20260904163604 | 71 | 198 | 3.0 | 6.0 | 0.01 | 0.78 | 0.12 | 96 | 1013.4 |
| 20260904163104 | 71 | 226 | 3.0 | 12.0 | 0.01 | 0.78 | 0.12 | 96 | 1013.3 |
| 20260904162604 | 71 | 184 | 3.0 | 6.0 | 0.02 | 0.78 | 0.12 | 96 | 1013.3 |
| 20260904162104 | 71 | 215 | 3.0 | 7.0 | 0.02 | 0.78 | 0.12 | 96 | 1013.7 |
| 20260904161604 | 71 | 210 | 2.0 | 5.0 | 0.02 | 0.78 | 0.12 | 96 | 1013.8 |
| 20260904161103 | 71 | 194 | 3.0 | 6.0 | 0.02 | 0.78 | 0.12 | 96 | 1013.9 |
| 20260904160604 | 71 | 186 | 1.0 | 2.0 | 0.02 | 0.78 | 0.12 | 96 | 1014.4 |
| 20260904155604 | 70 | 229 | 1.0 | 3.0 | 0.01 | 0.77 | 0.11 | 96 | 1015.3 |
| 20260904155104 | 70 | 261 | 1.0 | 2.0 | 0.01 | 0.77 | 0.11 | 96 | 1015.4 |
| 20260904154604 | 70 | 261 | 0.0 | 1.0 | 0.02 | 0.77 | 0.11 | 96 | 1015.7 |
| 20260904153604 | 70 | 261 | 0.0 | 1.0 | 0.02 | 0.77 | 0.11 | 95 | 1015.9 |
| 20260904153104 | 70 | 261 | 0.0 | 0.0 | 0.02 | 0.77 | 0.11 | 95 | 1015.4 |
| 20260904152604 | 70 | 261 | 0.0 | 1.0 | 0.02 | 0.76 | 0.10 | 95 | 1015.4 |
| 20260904152104 | 70 | 261 | 0.0 | 1.0 | 0.02 | 0.76 | 0.10 | 95 | 1015.4 |
| 20260904151104 | 70 | 109 | 1.0 | 2.0 | 0.02 | 0.76 | 0.10 | 95 | 1015.1 |
| 20260904150604 | 70 | 108 | 1.0 | 2.0 | 0.02 | 0.76 | 0.10 | 95 | 1014.9 |
| 20260904145104 | 70 | 243 | 0.0 | 1.0 | 0.03 | 0.76 | 0.10 | 95 | 1015.7 |
| 20260904144604 | 70 | 243 | 0.0 | 2.0 | 0.02 | 0.75 | 0.09 | 95 | 1015.8 |
| 20260904144104 | 70 | 246 | 2.0 | 3.0 | 0.03 | 0.75 | 0.09 | 95 | 1015.9 |
| 20260904143604 | 70 | 249 | 1.0 | 3.0 | 0.03 | 0.75 | 0.09 | 95 | 1015.9 |
| 20260904143104 | 70 | 247 | 1.0 | 3.0 | 0.03 | 0.75 | 0.09 | 95 | 1016.2 |
| 20260904142604 | 70 | 254 | 2.0 | 6.0 | 0.02 | 0.74 | 0.08 | 95 | 1016.1 |
| 20260904141603 | 71 | 269 | 1.0 | 6.0 | 0.02 | 0.74 | 0.08 | 95 | 1016.5 |
| 20260904141103 | 71 | 262 | 3.0 | 6.0 | 0.02 | 0.74 | 0.08 | 95 | 1016.4 |
| 20260904140604 | 71 | 268 | 1.0 | 5.0 | 0.03 | 0.74 | 0.08 | 95 | 1016.4 |
| 20260904140104 | 71 | 280 | 0.0 | 2.0 | 0.02 | 0.73 | 0.07 | 95 | 1015.9 |
| 20260904135604 | 71 | 196 | 0.0 | 0.0 | 0.02 | 0.73 | 0.07 | 95 | 1015.6 |
| 20260904135104 | 71 | 181 | 0.0 | 0.0 | 0.02 | 0.73 | 0.07 | 95 | 1015.3 |
| 20260904134604 | 71 | 209 | 0.0 | 0.0 | 0.02 | 0.73 | 0.07 | 95 | 1015.7 |
| 20260904134104 | 71 | 247 | 0.0 | 0.0 | 0.02 | 0.72 | 0.06 | 95 | 1015.7 |
| 20260904133605 | 71 | 243 | 0.0 | 0.0 | 0.02 | 0.72 | 0.06 | 95 | 1015.4 |
| 20260904133103 | 71 | 244 | 0.0 | 0.0 | 0.02 | 0.72 | 0.06 | 95 | 1014.8 |
| 20260904132604 | 71 | 244 | 0.0 | 0.0 | 0.02 | 0.72 | 0.06 | 95 | 1015.1 |
| 20260904132104 | 71 | 251 | 0.0 | 0.0 | 0.02 | 0.72 | 0.06 | 95 | 1014.7 |
| 20260904131604 | 71 | 9 | 0.0 | 0.0 | 0.02 | 0.72 | 0.06 | 95 | 1014.4 |
| 20260904131104 | 71 | 295 | 0.0 | 0.0 | 0.02 | 0.72 | 0.06 | 95 | 1014.8 |
| 20260904130603 | 71 | 294 | 0.0 | 0.0 | 0.01 | 0.71 | 0.05 | 95 | 1014.8 |
| 20260904130104 | 71 | 140 | 0.0 | 0.0 | 0.01 | 0.71 | 0.05 | 95 | 1014.7 |
| 20260904125604 | 71 | 140 | 0.0 | 0.0 | 0.01 | 0.71 | 0.05 | 95 | 1014.3 |
| 20260904124604 | 71 | 140 | 0.0 | 0.0 | 0.02 | 0.71 | 0.05 | 95 | 1014.5 |
| 20260904124104 | 71 | 140 | 0.0 | 0.0 | 0.01 | 0.70 | 0.04 | 95 | 1014.3 |
| 20260904123604 | 71 | 140 | 0.0 | 0.0 | 0.01 | 0.70 | 0.04 | 95 | 1014.1 |
| 20260904123104 | 71 | 141 | 0.0 | 0.0 | 0.01 | 0.70 | 0.04 | 95 | 1014.3 |
| 20260904121604 | 71 | 141 | 0.0 | 0.0 | 0.02 | 0.70 | 0.04 | 95 | 1014.3 |
| 20260904121104 | 71 | 141 | 0.0 | 0.0 | 0.02 | 0.70 | 0.04 | 95 | 1014.4 |
| 20260904120604 | 71 | 141 | 0.0 | 0.0 | 0.02 | 0.70 | 0.04 | 95 | 1014.5 |
| 20260904115104 | 71 | 141 | 0.0 | 0.0 | 0.01 | 0.69 | 0.03 | 95 | 1014.8 |
| 20260904114604 | 71 | 141 | 0.0 | 0.0 | 0.01 | 0.69 | 0.03 | 95 | 1014.8 |
| 20260904113604 | 71 | 141 | 0.0 | 0.0 | 0.01 | 0.69 | 0.03 | 95 | 1014.6 |
| 20260904113104 | 71 | 140 | 0.0 | 0.0 | 0.01 | 0.69 | 0.03 | 95 | 1014.6 |
| 20260904112604 | 71 | 140 | 0.0 | 0.0 | 0.01 | 0.69 | 0.03 | 95 | 1014.5 |
| 20260904112104 | 71 | 140 | 0.0 | 0.0 | 0.00 | 0.68 | 0.02 | 95 | 1014.4 |
| 20260904111604 | 71 | 140 | 0.0 | 0.0 | 0.00 | 0.68 | 0.02 | 95 | 1014.4 |
| 20260904111104 | 71 | 140 | 0.0 | 0.0 | 0.00 | 0.68 | 0.02 | 95 | 1014.3 |
| 20260904110604 | 71 | 140 | 0.0 | 0.0 | 0.00 | 0.68 | 0.02 | 95 | 1014.0 |
| 20260904105603 | 71 | 130 | 0.0 | 0.0 | 0.00 | 0.68 | 0.02 | 95 | 1013.7 |
| 20260904105104 | 71 | 67 | 0.0 | 0.0 | 0.00 | 0.68 | 0.02 | 95 | 1013.7 |
| 20260904104104 | 71 | 94 | 0.0 | 0.0 | 0.00 | 0.68 | 0.02 | 95 | 1013.6 |
| 20260904103605 | 71 | 91 | 0.0 | 0.0 | 0.00 | 0.68 | 0.02 | 95 | 1013.6 |
| 20260904103104 | 71 | 91 | 0.0 | 0.0 | 0.00 | 0.68 | 0.02 | 95 | 1013.7 |
| 20260904102603 | 71 | 135 | 0.0 | 0.0 | 0.00 | 0.68 | 0.02 | 95 | 1013.8 |
| 20260904101604 | 71 | 101 | 0.0 | 0.0 | 0.00 | 0.68 | 0.02 | 95 | 1013.7 |
| 20260904100604 | 71 | 208 | 0.0 | 0.0 | 0.00 | 0.68 | 0.02 | 94 | 1013.4 |
| 20260904100104 | 71 | 208 | 0.0 | 0.0 | 0.00 | 0.68 | 0.02 | 94 | 1013.5 |
| 20260904095604 | 71 | 208 | 0.0 | 0.0 | 0.00 | 0.68 | 0.02 | 95 | 1013.2 |
| 20260904095104 | 71 | 208 | 0.0 | 0.0 | 0.00 | 0.68 | 0.02 | 94 | 1013.1 |
| 20260904094104 | 70 | 208 | 0.0 | 0.0 | 0.00 | 0.68 | 0.02 | 95 | 1012.7 |
| 20260904093604 | 70 | 207 | 0.0 | 0.0 | 0.00 | 0.68 | 0.02 | 95 | 1012.7 |
| 20260904093103 | 70 | 207 | 0.0 | 0.0 | 0.00 | 0.68 | 0.02 | 94 | 1012.7 |
| 20260904092603 | 70 | 207 | 0.0 | 0.0 | 0.00 | 0.68 | 0.02 | 94 | 1012.7 |
| 20260904092103 | 70 | 207 | 0.0 | 0.0 | 0.00 | 0.68 | 0.02 | 94 | 1013.1 |
| 20260904091603 | 70 | 207 | 0.0 | 0.0 | 0.00 | 0.68 | 0.02 | 94 | 1013.2 |
| 20260904091104 | 70 | 207 | 0.0 | 0.0 | 0.00 | 0.68 | 0.02 | 94 | 1013.1 |
| 20260904090104 | 70 | 207 | 0.0 | 0.0 | 0.00 | 0.68 | 0.02 | 94 | 1013.5 |
| 20260904085604 | 70 | 207 | 0.0 | 0.0 | 0.00 | 0.68 | 0.02 | 94 | 1013.3 |
| 20260904085103 | 70 | 207 | 0.0 | 0.0 | 0.00 | 0.68 | 0.02 | 94 | 1013.3 |
| 20260904084604 | 70 | 207 | 0.0 | 0.0 | 0.00 | 0.68 | 0.02 | 94 | 1013.5 |
| 20260904084104 | 70 | 207 | 0.0 | 0.0 | 0.00 | 0.68 | 0.02 | 94 | 1013.5 |
| 20260904083603 | 70 | 207 | 0.0 | 0.0 | 0.00 | 0.68 | 0.02 | 94 | 1013.7 |
| 20260904083103 | 70 | 207 | 0.0 | 0.0 | 0.00 | 0.68 | 0.02 | 94 | 1013.7 |
| 20260904081604 | 70 | 207 | 0.0 | 0.0 | 0.00 | 0.68 | 0.02 | 94 | 1013.5 |
| 20260904080604 | 70 | 207 | 0.0 | 0.0 | 0.00 | 0.68 | 0.02 | 94 | 1013.4 |
| 20260904075604 | 70 | 207 | 0.0 | 0.0 | 0.00 | 0.68 | 0.02 | 94 | 1013.2 |
| 20260904075104 | 70 | 207 | 0.0 | 0.0 | 0.00 | 0.68 | 0.02 | 94 | 1013.1 |
| 20260904074604 | 70 | 207 | 0.0 | 0.0 | 0.00 | 0.68 | 0.02 | 94 | 1013.1 |
| 20260904074104 | 70 | 207 | 0.0 | 0.0 | 0.00 | 0.68 | 0.02 | 94 | 1013.1 |
| 20260904073104 | 70 | 207 | 0.0 | 0.0 | 0.00 | 0.68 | 0.02 | 94 | 1013.2 |
| 20260904072604 | 70 | 206 | 0.0 | 0.0 | 0.00 | 0.68 | 0.02 | 94 | 1013.3 |
| 20260904072103 | 70 | 206 | 0.0 | 0.0 | 0.00 | 0.68 | 0.02 | 94 | 1013.2 |
| 20260904071604 | 70 | 206 | 0.0 | 0.0 | 0.00 | 0.68 | 0.02 | 94 | 1013.3 |
| 20260904071104 | 70 | 206 | 0.0 | 0.0 | 0.00 | 0.68 | 0.02 | 94 | 1013.5 |
| 20260904070603 | 70 | 205 | 0.0 | 0.0 | 0.00 | 0.68 | 0.02 | 94 | 1013.6 |
| 20260904070103 | 70 | 205 | 0.0 | 0.0 | 0.00 | 0.68 | 0.02 | 94 | 1013.7 |
| 20260904065604 | 70 | 205 | 0.0 | 0.0 | 0.00 | 0.68 | 0.02 | 94 | 1013.7 |
| 20260904065104 | 70 | 205 | 0.0 | 0.0 | 0.00 | 0.68 | 0.02 | 94 | 1013.8 |
| 20260904064604 | 70 | 205 | 0.0 | 0.0 | 0.01 | 0.68 | 0.02 | 94 | 1013.8 |
| 20260904064103 | 70 | 205 | 0.0 | 0.0 | 0.01 | 0.68 | 0.02 | 94 | 1013.8 |
| 20260904063605 | 70 | 205 | 0.0 | 0.0 | 0.01 | 0.68 | 0.02 | 94 | 1013.8 |
| 20260904063105 | 70 | 204 | 0.0 | 0.0 | 0.01 | 0.68 | 0.02 | 94 | 1013.9 |
| 20260904062605 | 70 | 205 | 0.0 | 0.0 | 0.01 | 0.68 | 0.02 | 94 | 1013.9 |
| 20260904062104 | 70 | 204 | 0.0 | 0.0 | 0.01 | 0.68 | 0.02 | 94 | 1013.9 |
| 20260904061605 | 70 | 202 | 0.0 | 0.0 | 0.01 | 0.68 | 0.02 | 94 | 1014.0 |
| 20260904060604 | 70 | 202 | 0.0 | 0.0 | 0.01 | 0.68 | 0.02 | 94 | 1013.8 |
| 20260904060105 | 70 | 202 | 0.0 | 0.0 | 0.01 | 0.68 | 0.02 | 94 | 1013.8 |
| 20260904054605 | 70 | 200 | 0.0 | 0.0 | 0.00 | 0.67 | 0.01 | 94 | 1013.8 |
| 20260904054104 | 70 | 200 | 0.0 | 0.0 | 0.01 | 0.67 | 0.01 | 94 | 1014.0 |
| 20260904052604 | 70 | 200 | 0.0 | 0.0 | 0.01 | 0.67 | 0.01 | 94 | 1014.0 |
| 20260904052105 | 69 | 200 | 0.0 | 0.0 | 0.01 | 0.67 | 0.01 | 94 | 1014.2 |
| 20260904051604 | 69 | 200 | 0.0 | 0.0 | 0.01 | 0.67 | 0.01 | 94 | 1014.2 |
| 20260904051104 | 69 | 200 | 0.0 | 0.0 | 0.01 | 0.67 | 0.01 | 94 | 1014.2 |
| 20260904050605 | 69 | 200 | 0.0 | 0.0 | 0.01 | 0.67 | 0.01 | 94 | 1014.2 |
| 20260904045104 | 69 | 200 | 0.0 | 0.0 | 0.02 | 0.67 | 0.01 | 94 | 1014.2 |
| 20260904044604 | 69 | 200 | 0.0 | 0.0 | 0.02 | 0.67 | 0.01 | 94 | 1014.1 |
| 20260904044104 | 69 | 200 | 0.0 | 0.0 | 0.01 | 0.66 | 0.00 | 94 | 1014.1 |
| 20260904043605 | 70 | 200 | 0.0 | 0.0 | 0.01 | 0.66 | 0.00 | 94 | 1014.2 |
| 20260904043105 | 70 | 200 | 0.0 | 0.0 | 0.01 | 0.66 | 0.00 | 94 | 1014.2 |
| 20260904042607 | 70 | 200 | 0.0 | 0.0 | 0.01 | 0.66 | 0.00 | 94 | 1014.1 |
| 20260904042107 | 70 | 200 | 0.0 | 0.0 | 0.01 | 0.66 | 0.00 | 94 | 1014.2 |
| 20260904041607 | 70 | 200 | 0.0 | 0.0 | 0.02 | 0.66 | 0.00 | 94 | 1014.1 |
| 20260904041105 | 70 | 201 | 0.0 | 0.0 | 0.02 | 0.66 | 0.00 | 94 | 1013.9 |
| 20260904040605 | 70 | 201 | 0.0 | 0.0 | 0.02 | 0.66 | 0.00 | 93 | 1013.7 |
| 20260904040104 | 70 | 202 | 0.0 | 0.0 | 0.02 | 0.66 | 0.00 | 93 | 1013.7 |
| 20260904035605 | 70 | 203 | 0.0 | 0.0 | 0.02 | 0.66 | 0.66 | 93 | 1013.8 |
| 20260904035105 | 70 | 204 | 0.0 | 0.0 | 0.01 | 0.65 | 0.65 | 93 | 1013.7 |
| 20260904034605 | 70 | 197 | 0.0 | 0.0 | 0.01 | 0.65 | 0.65 | 93 | 1013.8 |
| 20260904033605 | 70 | 200 | 0.0 | 0.0 | 0.02 | 0.65 | 0.65 | 93 | 1013.7 |
| 20260904033105 | 70 | 203 | 0.0 | 0.0 | 0.02 | 0.65 | 0.65 | 93 | 1013.7 |
| 20260904032105 | 70 | 207 | 0.0 | 0.0 | 0.02 | 0.65 | 0.65 | 93 | 1013.6 |
| 20260904031604 | 70 | 207 | 0.0 | 0.0 | 0.02 | 0.65 | 0.65 | 93 | 1013.6 |
| 20260904031104 | 70 | 208 | 0.0 | 0.0 | 0.02 | 0.64 | 0.64 | 93 | 1013.7 |
| 20260904030605 | 70 | 208 | 0.0 | 0.0 | 0.02 | 0.64 | 0.64 | 93 | 1013.6 |
| 20260904025605 | 70 | 208 | 0.0 | 0.0 | 0.02 | 0.64 | 0.64 | 93 | 1013.5 |
| 20260904025104 | 70 | 208 | 0.0 | 0.0 | 0.02 | 0.64 | 0.64 | 93 | 1013.3 |
| 20260904024604 | 71 | 208 | 0.0 | 0.0 | 0.03 | 0.64 | 0.64 | 93 | 1013.2 |
| 20260904024104 | 71 | 209 | 0.0 | 0.0 | 0.03 | 0.64 | 0.64 | 93 | 1013.2 |
| 20260904023604 | 71 | 209 | 0.0 | 0.0 | 0.02 | 0.63 | 0.63 | 93 | 1013.2 |
| 20260904023105 | 71 | 209 | 0.0 | 0.0 | 0.02 | 0.63 | 0.63 | 93 | 1013.2 |
| 20260904022605 | 71 | 209 | 0.0 | 0.0 | 0.03 | 0.63 | 0.63 | 93 | 1013.2 |
| 20260904022104 | 71 | 210 | 0.0 | 0.0 | 0.03 | 0.63 | 0.63 | 93 | 1013.1 |
| 20260904021604 | 71 | 210 | 0.0 | 0.0 | 0.03 | 0.63 | 0.63 | 93 | 1013.1 |
| 20260904020604 | 71 | 210 | 0.0 | 0.0 | 0.02 | 0.62 | 0.62 | 93 | 1013.0 |
| 20260904020105 | 71 | 210 | 0.0 | 0.0 | 0.03 | 0.62 | 0.62 | 93 | 1013.0 |
| 20260904015604 | 71 | 210 | 0.0 | 0.0 | 0.03 | 0.62 | 0.62 | 93 | 1013.0 |
| 20260904015105 | 71 | 210 | 0.0 | 0.0 | 0.03 | 0.62 | 0.62 | 93 | 1013.0 |
| 20260904014604 | 71 | 210 | 0.0 | 0.0 | 0.02 | 0.61 | 0.61 | 93 | 1013.1 |
| 20260904013104 | 71 | 210 | 0.0 | 0.0 | 0.03 | 0.61 | 0.61 | 92 | 1013.3 |
| 20260904012605 | 71 | 210 | 0.0 | 0.0 | 0.02 | 0.60 | 0.60 | 93 | 1013.4 |
| 20260904012105 | 71 | 210 | 0.0 | 0.0 | 0.03 | 0.60 | 0.60 | 93 | 1013.2 |
| 20260904010604 | 72 | 210 | 0.0 | 0.0 | 0.04 | 0.60 | 0.60 | 93 | 1013.0 |
| 20260904005605 | 72 | 210 | 0.0 | 0.0 | 0.03 | 0.59 | 0.59 | 92 | 1013.3 |
| 20260904004104 | 72 | 210 | 0.0 | 0.0 | 0.04 | 0.58 | 0.58 | 92 | 1013.0 |
| 20260904003605 | 72 | 210 | 0.0 | 0.0 | 0.04 | 0.58 | 0.58 | 92 | 1013.0 |
| 20260904003105 | 72 | 211 | 0.0 | 0.0 | 0.04 | 0.58 | 0.58 | 92 | 1012.9 |
| 20260904002604 | 72 | 211 | 0.0 | 0.0 | 0.05 | 0.58 | 0.58 | 92 | 1012.6 |
| 20260904002104 | 72 | 211 | 0.0 | 0.0 | 0.04 | 0.57 | 0.57 | 92 | 1012.5 |
| 20260904001605 | 72 | 211 | 0.0 | 0.0 | 0.05 | 0.57 | 0.57 | 92 | 1012.5 |
| 20260904001105 | 72 | 211 | 0.0 | 0.0 | 0.04 | 0.56 | 0.56 | 92 | 1012.4 |
| 20260904000104 | 73 | 211 | 0.0 | 0.0 | 0.05 | 0.56 | 0.56 | 92 | 1012.3 |
| 20260903235605 | 73 | 211 | 0.0 | 0.0 | 0.05 | 0.56 | 0.56 | 92 | 1012.3 |
| 20260903235105 | 73 | 211 | 0.0 | 0.0 | 0.05 | 0.55 | 0.55 | 92 | 1012.0 |
| 20260903234604 | 72 | 212 | 0.0 | 0.0 | 0.05 | 0.55 | 0.55 | 92 | 1012.4 |
| 20260903234104 | 72 | 212 | 0.0 | 0.0 | 0.05 | 0.54 | 0.54 | 92 | 1012.4 |
| 20260903233604 | 72 | 212 | 0.0 | 0.0 | 0.05 | 0.54 | 0.54 | 92 | 1012.5 |
| 20260903233105 | 72 | 212 | 0.0 | 0.0 | 0.06 | 0.54 | 0.54 | 91 | 1012.5 |
| 20260903232604 | 72 | 212 | 0.0 | 0.0 | 0.05 | 0.53 | 0.53 | 91 | 1012.5 |
| 20260903232104 | 72 | 209 | 0.0 | 0.0 | 0.06 | 0.53 | 0.53 | 91 | 1012.1 |
| 20260903231604 | 72 | 209 | 0.0 | 0.0 | 0.06 | 0.52 | 0.52 | 91 | 1012.2 |
| 20260903231104 | 73 | 209 | 0.0 | 0.0 | 0.06 | 0.52 | 0.52 | 91 | 1012.3 |